Location: Cincinnati Observatory Center
(39.1389°N, 84.4225°W)
Time: 23:56:31
(UTC-05:00)

Hubble Space Telescope - Visible Passes

Search period start: 17 February 2018 00:00
Search period end: 27 February 2018 00:00
Orbit: 537 x 541 km, 28.5° (Epoch: 17 February)

Date Brightness Start Highest point End Pass type
(mag) Time Alt. Az. Time Alt. Az. Time Alt. Az.
19 Feb 3.5 05:53:07 10° S 05:53:57 11° SSE 05:54:49 10° SSE visible
20 Feb 3.3 05:41:50 10° S 05:43:33 12° SSE 05:45:17 10° SE visible
21 Feb 3.1 05:32:15 13° S 05:33:09 14° SSE 05:35:20 10° SE visible
22 Feb 3.0 05:22:37 15° S 05:22:45 15° S 05:25:14 10° SE visible
23 Feb 3.0 05:12:57 16° SSE 05:12:57 16° SSE 05:15:03 10° SE visible
23 Feb 2.9 06:50:08 10° SW 06:52:56 18° S 06:55:44 10° SE visible
24 Feb 3.1 05:03:15 16° SSE 05:03:15 16° SSE 05:04:48 10° SE visible
24 Feb 2.9 06:39:53 10° SW 06:42:33 17° S 06:45:13 10° SSE visible
25 Feb 3.3 04:53:33 14° SE 04:53:33 14° SE 04:54:29 10° SE visible
25 Feb 2.9 06:29:42 10° SW 06:32:10 15° S 06:34:37 10° SSE visible
26 Feb 3.6 04:43:51 11° SE 04:43:51 11° SE 04:44:08 10° SE visible
26 Feb 3.0 06:19:37 10° SW 06:21:46 14° SSW 06:23:55 10° SSE visible
